Time,TemperatureF,DewpointF,PressureIn,WindDirection,WindDirectionDegrees,WindSpeedMPH,WindSpeedGustMPH,Humidity,HourlyPrecipIn,Conditions,Clouds,dailyrainin,SoftwareType,DateUTC
2013-07-18 00:32:00,80.0,-99.9,30.12,East,79,-999.0,1.0,-999,-99.99,,,-99.99,,2013-07-18 04:32:00,
2013-07-18 00:43:00,80.0,-99.9,30.11,ESE,105,1.0,2.0,-999,-99.99,,,-99.99,,2013-07-18 04:43:00,
2013-07-18 00:52:00,80.0,-99.9,30.11,ESE,111,-999.0,1.0,-999,-99.99,,,-99.99,,2013-07-18 04:52:00,
2013-07-18 01:02:00,80.0,-99.9,30.12,SSE,157,2.0,2.0,-999,-99.99,,,-99.99,,2013-07-18 05:02:00,
2013-07-18 01:32:00,79.0,-99.9,30.12,South,171,1.0,2.0,-999,-99.99,,,-99.99,,2013-07-18 05:32:00,
2013-07-18 01:52:00,80.0,-99.9,30.12,SE,135,1.0,2.0,-999,-99.99,,,-99.99,,2013-07-18 05:52:00,
2013-07-18 02:01:00,79.0,-99.9,30.11,ESE,123,2.0,3.0,-999,-99.99,,,-99.99,,2013-07-18 06:01:00,
2013-07-18 02:32:00,79.0,-99.9,30.11,ESE,107,1.0,2.0,-999,-99.99,,,-99.99,,2013-07-18 06:32:00,
2013-07-18 02:43:00,79.0,-99.9,30.11,ESE,103,1.0,2.0,-999,-99.99,,,-99.99,,2013-07-18 06:43:00,
2013-07-18 03:01:00,79.0,-99.9,30.11,East,79,1.0,2.0,-999,-99.99,,,-99.99,,2013-07-18 07:01:00,
2013-07-18 03:12:00,78.0,-99.9,30.10,East,97,2.0,3.0,-999,-99.99,,,-99.99,,2013-07-18 07:12:00,
2013-07-18 03:32:00,79.0,-99.9,30.10,SE,132,2.0,2.0,-999,-99.99,,,-99.99,,2013-07-18 07:32:00,
2013-07-18 03:42:00,79.0,-99.9,30.10,SE,132,3.0,4.0,-999,-99.99,,,-99.99,,2013-07-18 07:42:00,
2013-07-18 03:52:00,79.0,-99.9,30.10,ESE,116,2.0,2.0,-999,-99.99,,,-99.99,,2013-07-18 07:52:00,
2013-07-18 04:01:00,78.0,-99.9,30.10,East,88,1.0,2.0,-999,-99.99,,,-99.99,,2013-07-18 08:01:00,
2013-07-18 04:11:00,78.0,-99.9,30.10,SE,143,-999.0,1.0,-999,-99.99,,,-99.99,,2013-07-18 08:11:00,
2013-07-18 04:32:00,79.0,-99.9,30.10,SE,136,2.0,2.0,-999,-99.99,,,-99.99,,2013-07-18 08:32:00,
2013-07-18 04:42:00,79.0,-99.9,30.10,SSE,155,2.0,3.0,-999,-99.99,,,-99.99,,2013-07-18 08:42:00,
2013-07-18 04:52:00,79.0,-99.9,30.10,SSE,157,3.0,4.0,-999,-99.99,,,-99.99,,2013-07-18 08:52:00,
2013-07-18 05:01:00,79.0,-99.9,30.11,SSE,152,3.0,4.0,-999,-99.99,,,-99.99,,2013-07-18 09:01:00,
2013-07-18 05:32:00,79.0,-99.9,30.11,SE,144,3.0,4.0,-999,-99.99,,,-99.99,,2013-07-18 09:32:00,
2013-07-18 05:42:00,79.0,-99.9,30.11,SE,125,2.0,4.0,-999,-99.99,,,-99.99,,2013-07-18 09:42:00,
2013-07-18 05:52:00,79.0,-99.9,30.11,ESE,115,4.0,5.0,-999,-99.99,,,-99.99,,2013-07-18 09:52:00,
2013-07-18 06:01:00,79.0,-99.9,30.11,ESE,115,3.0,6.0,-999,-99.99,,,-99.99,,2013-07-18 10:01:00,
2013-07-18 07:01:00,79.0,-99.9,30.11,ESE,113,5.0,6.0,-999,-99.99,,,-99.99,,2013-07-18 11:01:00,
2013-07-18 07:43:00,80.0,-99.9,30.12,ESE,123,4.0,5.0,-999,-99.99,,,-99.99,,2013-07-18 11:43:00,
2013-07-18 07:52:00,80.0,-99.9,30.12,ESE,112,4.0,5.0,-999,-99.99,,,-99.99,,2013-07-18 11:52:00,
2013-07-18 08:11:00,81.0,-99.9,30.12,ESE,120,3.0,4.0,-999,-99.99,,,-99.99,,2013-07-18 12:11:00,
2013-07-18 09:01:00,81.0,-99.9,30.13,SSE,153,2.0,4.0,-999,-99.99,,,-99.99,,2013-07-18 13:01:00,
2013-07-18 09:11:00,83.0,-99.9,30.13,WNW,293,1.0,3.0,-999,-99.99,,,-99.99,,2013-07-18 13:11:00,
2013-07-18 09:43:00,83.0,-99.9,30.13,WNW,289,2.0,3.0,-999,-99.99,,,-99.99,,2013-07-18 13:43:00,
2013-07-18 10:02:00,83.0,-99.9,30.13,NNW,343,2.0,3.0,-999,-99.99,,,-99.99,,2013-07-18 14:02:00,
2013-07-18 10:22:00,83.0,-99.9,30.13,NW,319,1.0,2.0,-999,-99.99,,,-99.99,,2013-07-18 14:22:00,
2013-07-18 10:43:00,84.0,-99.9,30.13,North,349,2.0,2.0,-999,-99.99,,,-99.99,,2013-07-18 14:43:00,
2013-07-18 11:01:00,84.0,-99.9,30.14,NW,304,2.0,4.0,-999,-99.99,,,-99.99,,2013-07-18 15:01:00,
2013-07-18 11:43:00,83.0,-99.9,30.14,SE,128,2.0,4.0,-999,-99.99,,,-99.99,,2013-07-18 15:43:00,
2013-07-18 12:01:00,82.0,-99.9,30.14,SE,144,5.0,7.0,-999,-99.99,,,-99.99,,2013-07-18 16:01:00,
2013-07-18 12:32:00,81.0,-99.9,30.14,SSE,147,8.0,9.0,-999,-99.99,,,-99.99,,2013-07-18 16:32:00,
2013-07-18 13:02:00,82.0,-99.9,30.14,SE,139,7.0,8.0,-999,-99.99,,,-99.99,,2013-07-18 17:02:00,
2013-07-18 13:43:00,84.0,-99.9,30.13,SE,136,6.0,8.0,-999,-99.99,,,-99.99,,2013-07-18 17:43:00,
2013-07-18 14:33:00,83.0,-99.9,30.12,SSE,163,7.0,8.0,-999,-99.99,,,-99.99,,2013-07-18 18:33:00,
2013-07-18 15:02:00,83.0,-99.9,30.12,SSE,157,6.0,9.0,-999,-99.99,,,-99.99,,2013-07-18 19:02:00,
2013-07-18 15:22:00,83.0,-99.9,30.11,SSE,159,7.0,9.0,-999,-99.99,,,-99.99,,2013-07-18 19:22:00,
2013-07-18 15:43:00,84.0,-99.9,30.11,SE,146,7.0,9.0,-999,-99.99,,,-99.99,,2013-07-18 19:43:00,
2013-07-18 16:02:00,83.0,-99.9,30.10,SSE,163,8.0,10.0,-999,-99.99,,,-99.99,,2013-07-18 20:02:00,
2013-07-18 16:32:00,84.0,-99.9,30.09,SSE,163,6.0,9.0,-999,-99.99,,,-99.99,,2013-07-18 20:32:00,
2013-07-18 16:43:00,85.0,-99.9,30.09,SSE,164,5.0,8.0,-999,-99.99,,,-99.99,,2013-07-18 20:43:00,
2013-07-18 17:11:00,84.0,-99.9,30.09,SSE,153,7.0,11.0,-999,-99.99,,,-99.99,,2013-07-18 21:11:00,
2013-07-18 17:43:00,84.0,-99.9,30.09,SSE,162,6.0,8.0,-999,-99.99,,,-99.99,,2013-07-18 21:43:00,
2013-07-18 17:52:00,84.0,-99.9,30.08,SSE,168,6.0,9.0,-999,-99.99,,,-99.99,,2013-07-18 21:52:00,
2013-07-18 18:01:00,84.0,-99.9,30.08,SSE,161,6.0,8.0,-999,-99.99,,,-99.99,,2013-07-18 22:01:00,
2013-07-18 18:11:00,84.0,-99.9,30.08,SSE,159,6.0,9.0,-999,-99.99,,,-99.99,,2013-07-18 22:11:00,
2013-07-18 18:32:00,83.0,-99.9,30.08,South,169,6.0,8.0,-999,-99.99,,,-99.99,,2013-07-18 22:32:00,
2013-07-18 18:43:00,84.0,-99.9,30.08,South,170,7.0,9.0,-999,-99.99,,,-99.99,,2013-07-18 22:43:00,
2013-07-18 19:02:00,84.0,-99.9,30.08,South,177,6.0,10.0,-999,-99.99,,,-99.99,,2013-07-18 23:02:00,
2013-07-18 19:11:00,84.0,-99.9,30.08,South,176,6.0,9.0,-999,-99.99,,,-99.99,,2013-07-18 23:11:00,
2013-07-18 19:32:00,84.0,-99.9,30.08,SSW,202,4.0,9.0,-999,-99.99,,,-99.99,,2013-07-18 23:32:00,
2013-07-18 19:52:00,83.0,-99.9,30.08,SSW,197,4.0,9.0,-999,-99.99,,,-99.99,,2013-07-18 23:52:00,
2013-07-18 20:01:00,83.0,-99.9,30.08,South,189,5.0,8.0,-999,-99.99,,,-99.99,,2013-07-19 00:01:00,
2013-07-18 20:32:00,82.0,-99.9,30.09,SSW,203,7.0,10.0,-999,-99.99,,,-99.99,,2013-07-19 00:32:00,
2013-07-18 20:43:00,82.0,-99.9,30.09,SSW,207,7.0,11.0,-999,-99.99,,,-99.99,,2013-07-19 00:43:00,
2013-07-18 20:52:00,82.0,-99.9,30.09,SSW,210,7.0,10.0,-999,-99.99,,,-99.99,,2013-07-19 00:52:00,
2013-07-18 21:01:00,82.0,-99.9,30.09,SSW,207,7.0,9.0,-999,-99.99,,,-99.99,,2013-07-19 01:01:00,
2013-07-18 21:22:00,82.0,-99.9,30.09,SSW,203,7.0,10.0,-999,-99.99,,,-99.99,,2013-07-19 01:22:00,
2013-07-18 21:42:00,82.0,-99.9,30.10,SW,222,7.0,9.0,-999,-99.99,,,-99.99,,2013-07-19 01:42:00,
2013-07-18 22:02:00,82.0,-99.9,30.10,SW,221,7.0,10.0,-999,-99.99,,,-99.99,,2013-07-19 02:02:00,
2013-07-18 22:43:00,82.0,-99.9,30.11,SW,225,7.0,10.0,-999,-99.99,,,-99.99,,2013-07-19 02:43:00,
2013-07-18 23:01:00,81.0,-99.9,30.11,SW,229,7.0,10.0,-999,-99.99,,,-99.99,,2013-07-19 03:01:00,
2013-07-18 23:11:00,81.0,-99.9,30.11,SW,232,8.0,11.0,-999,-99.99,,,-99.99,,2013-07-19 03:11:00,
2013-07-18 23:43:00,81.0,-99.9,30.12,SW,227,7.0,11.0,-999,-99.99,,,-99.99,,2013-07-19 03:43:00,